EW9675 Weather Reports


Display with metric or nautical units.
time (UTC)temp
F
wind
direction
speed
MPH
gust
MPH
rain 1hr
in
rain 24hr
in
rain mn
in
humidity
%
barometer
mb
20260510194504 53 112 6.0 13.0 0.00 0.01 0.01 91 1029.2
20260510194025 53 106 6.0 11.0 0.00 0.01 0.01 90 1029.1
20260510193504 52 103 6.0 10.0 0.00 0.01 0.01 90 1029.1
20260510193004 52 102 6.0 10.0 0.00 0.02 0.01 90 1029.0
20260510192504 52 101 7.0 10.0 0.00 0.02 0.01 90 1028.9
20260510192004 52 102 7.0 11.0 0.00 0.02 0.01 90 1028.8
20260510191504 52 106 7.0 11.0 0.00 0.02 0.01 90 1028.8
20260510191004 52 109 6.0 10.0 0.00 0.02 0.01 90 1028.7
20260510190525 52 109 7.0 10.0 0.00 0.02 0.01 90 1028.7
20260510190004 52 110 8.0 11.0 0.00 0.02 0.01 90 1028.7
20260510185504 52 110 8.0 11.0 0.00 0.02 0.01 89 1028.6
20260510185004 52 106 8.0 11.0 0.00 0.02 0.01 89 1028.5
20260510184504 52 104 8.0 13.0 0.00 0.02 0.01 89 1028.5
20260510184024 52 105 8.0 13.0 0.00 0.02 0.01 89 1028.5
20260510183504 52 105 8.0 10.0 0.00 0.02 0.01 89 1028.4
20260510183004 52 103 8.0 10.0 0.00 0.02 0.01 89 1028.4
20260510182525 52 101 8.0 10.0 0.00 0.02 0.01 89 1028.4
20260510182004 52 101 8.0 10.0 0.00 0.02 0.01 89 1028.3
20260510181504 53 104 8.0 11.0 0.00 0.02 0.01 88 1028.3
20260510181003 53 105 8.0 11.0 0.00 0.02 0.01 88 1028.3
20260510180504 53 103 8.0 11.0 0.00 0.02 0.01 88 1028.3
20260510180004 54 105 8.0 11.0 0.00 0.02 0.01 88 1028.3
20260510175503 54 108 9.0 11.0 0.00 0.02 0.01 89 1028.3
20260510175004 54 108 9.0 13.0 0.00 0.02 0.01 89 1028.2
20260510174504 54 110 8.0 13.0 0.00 0.02 0.01 90 1028.2
20260510174025 53 114 8.0 13.0 0.00 0.02 0.01 90 1028.3
20260510173504 53 113 7.0 13.0 0.00 0.02 0.01 90 1028.3
20260510173004 53 110 6.0 11.0 0.00 0.02 0.01 90 1028.3
20260510172504 53 108 6.0 9.0 0.00 0.02 0.01 89 1028.4
20260510172025 53 108 6.0 9.0 0.00 0.02 0.01 89 1028.3
20260510171504 53 112 5.0 9.0 0.00 0.02 0.01 89 1028.3
20260510171004 53 109 5.0 9.0 0.00 0.02 0.01 89 1028.4
20260510170504 53 101 6.0 9.0 0.00 0.02 0.01 89 1028.3
20260510170025 53 102 6.0 9.0 0.00 0.02 0.01 88 1028.3
20260510165503 54 107 6.0 9.0 0.00 0.02 0.01 88 1028.3
20260510165004 54 109 6.0 9.0 0.00 0.02 0.01 88 1028.3
20260510164504 54 112 6.0 9.0 0.01 0.02 0.01 88 1028.4
20260510164004 54 115 7.0 10.0 0.01 0.02 0.01 88 1028.4
20260510163504 54 117 7.0 11.0 0.01 0.02 0.01 88 1028.4
20260510163004 55 120 8.0 14.0 0.01 0.02 0.01 88 1028.5
20260510162504 55 119 8.0 14.0 0.01 0.02 0.01 88 1028.5
20260510162024 55 118 8.0 14.0 0.01 0.02 0.01 88 1028.5
20260510161504 55 117 8.0 11.0 0.01 0.02 0.01 88 1028.6
20260510161004 55 115 8.0 13.0 0.01 0.02 0.01 88 1028.6
20260510160504 55 118 9.0 13.0 0.01 0.02 0.01 88 1028.7
20260510160004 55 122 9.0 13.0 0.01 0.02 0.01 88 1028.6
20260510155503 55 120 8.0 13.0 0.01 0.02 0.01 88 1028.7
20260510155004 55 119 7.0 14.0 0.01 0.02 0.01 88 1028.7
20260510154503 55 117 6.0 14.0 0.00 0.01 0.00 88 1028.7
20260510154004 55 110 6.0 11.0 0.00 0.01 0.00 88 1028.7
20260510153503 55 108 6.0 9.0 0.00 0.01 0.00 88 1028.8
20260510153004 55 104 6.0 11.0 0.00 0.01 0.00 89 1028.9
20260510152503 54 98 7.0 11.0 0.00 0.01 0.00 88 1028.8
20260510152004 54 102 7.0 11.0 0.00 0.01 0.00 88 1028.7
20260510151504 54 107 7.0 11.0 0.00 0.01 0.00 88 1028.8
20260510151003 54 105 6.0 11.0 0.00 0.01 0.00 88 1028.8
20260510150504 54 105 6.0 11.0 0.00 0.01 0.00 88 1028.8
20260510150004 54 102 6.0 11.0 0.00 0.01 0.00 88 1028.8
20260510145504 54 100 6.0 11.0 0.00 0.01 0.00 88 1028.8
20260510145003 54 101 6.0 10.0 0.00 0.01 0.00 88 1028.8
20260510144524 54 103 6.0 9.0 0.00 0.01 0.00 88 1028.8
20260510144003 54 104 7.0 9.0 0.00 0.01 0.00 87 1028.7
20260510143525 54 103 7.0 10.0 0.00 0.01 0.00 87 1028.7
20260510143005 55 105 7.0 10.0 0.00 0.01 0.00 87 1028.8
20260510142504 55 110 8.0 9.0 0.00 0.01 0.01 87 1028.8
20260510142003 55 113 8.0 11.0 0.00 0.01 0.01 87 1028.7
20260510141503 55 117 7.0 11.0 0.00 0.01 0.01 87 1028.7
20260510141003 55 117 7.0 11.0 0.00 0.01 0.01 87 1028.7
20260510140525 55 115 6.0 11.0 0.00 0.01 0.01 87 1028.7
20260510140004 55 115 6.0 10.0 0.00 0.01 0.01 87 1028.8
20260510135504 55 114 7.0 10.0 0.00 0.01 0.01 87 1028.8
20260510135004 55 116 7.0 11.0 0.00 0.01 0.01 87 1028.7
20260510134525 55 119 8.0 11.0 0.00 0.01 0.01 87 1028.8
20260510134003 56 121 8.0 10.0 0.00 0.01 0.01 87 1028.7
20260510133503 55 116 8.0 10.0 0.00 0.01 0.01 87 1028.7
20260510133025 56 115 7.0 13.0 0.00 0.01 0.01 87 1028.7
20260510132503 55 118 7.0 13.0 0.00 0.01 0.01 87 1028.7
20260510132003 55 118 6.0 11.0 0.00 0.01 0.01 87 1028.7
20260510131524 55 118 6.0 10.0 0.00 0.01 0.01 87 1028.7
20260510131004 55 118 6.0 10.0 0.00 0.01 0.01 87 1028.7
20260510130503 55 117 6.0 10.0 0.00 0.01 0.01 87 1028.8
20260510130003 55 117 6.0 11.0 0.00 0.01 0.01 87 1028.8
20260510125503 55 116 6.0 11.0 0.00 0.01 0.01 86 1028.8
20260510125024 56 114 6.0 13.0 0.00 0.01 0.01 86 1028.8
20260510124504 56 114 6.0 13.0 0.00 0.01 0.01 87 1028.8
20260510124003 56 115 7.0 11.0 0.00 0.01 0.01 87 1028.8
20260510123503 55 118 7.0 11.0 0.00 0.01 0.01 87 1028.9
20260510123003 56 121 7.0 11.0 0.00 0.01 0.01 87 1028.9
20260510122503 56 120 6.0 11.0 0.00 0.01 0.01 87 1029.0
20260510122003 56 119 6.0 10.0 0.00 0.02 0.01 87 1029.0
20260510121504 56 119 7.0 10.0 0.00 0.02 0.01 87 1028.9
20260510121003 56 121 7.0 13.0 0.00 0.02 0.01 87 1028.9
20260510120504 56 124 8.0 13.0 0.00 0.02 0.01 87 1028.9
20260510120004 56 121 8.0 13.0 0.00 0.02 0.01 87 1028.9
20260510115504 56 119 8.0 13.0 0.00 0.02 0.01 87 1028.8
20260510115003 55 122 8.0 13.0 0.00 0.02 0.01 87 1028.7
20260510114504 55 121 7.0 11.0 0.00 0.02 0.01 87 1028.7
20260510114003 55 120 7.0 11.0 0.00 0.02 0.01 87 1028.7
20260510113503 55 121 8.0 11.0 0.00 0.02 0.01 87 1028.7
20260510113003 55 122 7.0 11.0 0.00 0.02 0.01 87 1028.6
20260510112503 55 121 6.0 10.0 0.00 0.02 0.01 86 1028.6
20260510112004 55 118 6.0 10.0 0.00 0.02 0.01 86 1028.6
20260510111504 55 116 6.0 10.0 0.00 0.02 0.01 85 1028.7
20260510111003 55 117 6.0 10.0 0.00 0.02 0.01 85 1028.6
20260510110503 55 113 6.0 10.0 0.00 0.02 0.01 85 1028.7
20260510110004 55 111 6.0 10.0 0.00 0.02 0.01 84 1028.7
20260510105503 56 109 6.0 10.0 0.00 0.02 0.01 84 1028.7
20260510105004 56 108 6.0 10.0 0.00 0.02 0.01 83 1028.7
20260510104503 56 109 6.0 10.0 0.00 0.02 0.01 83 1028.6
20260510104004 56 106 6.0 10.0 0.00 0.02 0.01 83 1028.7
20260510103504 56 99 6.0 9.0 0.00 0.02 0.01 82 1028.6
20260510103004 56 95 5.0 9.0 0.00 0.02 0.01 82 1028.7
20260510102504 56 92 4.0 9.0 0.00 0.02 0.01 81 1028.6
20260510102025 56 91 3.0 9.0 0.00 0.02 0.01 81 1028.7
20260510101504 56 94 2.0 5.0 0.00 0.02 0.01 80 1028.7
20260510101004 57 99 2.0 6.0 0.00 0.02 0.01 79 1028.7
20260510100504 57 109 1.0 6.0 0.00 0.02 0.01 79 1028.7
20260510100004 58 117 0.0 5.0 0.00 0.02 0.01 78 1028.7
20260510095504 58 130 0.0 6.0 0.00 0.02 0.01 78 1028.7
20260510095025 58 156 0.0 6.0 0.00 0.02 0.01 78 1028.6
20260510094504 58 190 0.0 3.0 0.00 0.02 0.01 78 1028.6
20260510094025 58 172 0.0 3.0 0.00 0.02 0.01 78 1028.6
20260510093504 58 198 0.0 3.0 0.00 0.02 0.01 78 1028.5
20260510093025 58 213 0.0 1.0 0.00 0.02 0.01 78 1028.5
20260510092504 58 182 0.0 3.0 0.00 0.02 0.01 77 1028.6
20260510092004 58 188 0.0 6.0 0.00 0.02 0.01 77 1028.6
20260510091504 58 189 0.0 6.0 0.00 0.02 0.01 77 1028.5
20260510091025 58 186 0.0 4.0 0.00 0.02 0.01 77 1028.4
20260510090504 59 186 0.0 3.0 0.00 0.02 0.01 76 1028.4
20260510090004 59 191 0.0 3.0 0.00 0.02 0.01 76 1028.3
20260510085504 59 190 1.0 3.0 0.00 0.02 0.01 76 1028.2
20260510085004 59 180 1.0 3.0 0.00 0.02 0.01 75 1028.2
20260510084525 59 182 0.0 3.0 0.00 0.02 0.01 75 1028.2
20260510084004 60 194 0.0 3.0 0.00 0.02 0.01 75 1028.2
20260510083504 60 196 1.0 3.0 0.00 0.02 0.01 74 1028.1
20260510083004 60 192 1.0 3.0 0.00 0.02 0.01 74 1028.0
20260510082504 60 193 1.0 5.0 0.00 0.02 0.01 74 1028.0
20260510082004 60 191 0.0 5.0 0.00 0.02 0.01 73 1028.0
20260510081525 60 185 5.0 5.0 0.00 0.02 0.01 73 1028.0
20260510081025 61 0 0.0 0.0 0.00 0.02 0.01 73 1027.8
20260510080504 61 194 3.0 3.0 0.00 0.02 0.01 73 1027.8
20260510080004 61 194 3.0 3.0 0.00 0.02 0.01 72 1027.7
20260510075504 61 181 3.0 3.0 0.00 0.02 0.01 72 1027.7
20260510075004 62 182 3.0 3.0 0.00 0.02 0.01 72 1027.6
20260510074525 62 187 0.0 3.0 0.00 0.02 0.01 72 1027.6
20260510074004 62 193 0.0 5.0 0.00 0.02 0.01 71 1027.5
20260510073504 63 194 1.0 5.0 0.00 0.02 0.01 71 1027.5
20260510073004 63 195 1.0 8.0 0.00 0.02 0.01 70 1027.5
20260510072504 63 198 1.0 8.0 0.00 0.02 0.01 69 1027.5
20260510072004 63 199 0.0 6.0 0.00 0.02 0.01 69 1027.5
20260510071504 64 0 0.0 0.0 0.00 0.02 0.01 69 1027.5
20260510071004 64 0 0.0 0.0 0.00 0.02 0.01 69 1027.4
20260510070504 64 0 0.0 0.0 0.00 0.02 0.01 68 1027.5
20260510070004 64 0 0.0 0.0 0.00 0.02 0.01 68 1027.4
20260510065504 64 0 0.0 0.0 0.00 0.02 0.01 68 1027.4
20260510065004 64 0 0.0 0.0 0.00 0.02 0.01 68 1027.4
20260510064504 64 0 0.0 0.0 0.00 0.02 0.01 68 1027.4
20260510064004 64 0 0.0 0.0 0.00 0.02 0.01 67 1027.3
20260510063504 64 0 0.0 0.0 0.00 0.02 0.01 67 1027.3
20260510063025 64 0 0.0 0.0 0.00 0.02 0.01 66 1027.3
20260510062504 64 0 0.0 0.0 0.00 0.02 0.01 67 1027.3
20260510062004 64 0 0.0 0.0 0.00 0.02 0.01 68 1027.3
20260510061505 64 0 0.0 0.0 0.00 0.02 0.01 66 1027.3
20260510061025 64 0 0.0 0.0 0.00 0.02 0.01 67 1027.3
20260510060504 64 0 0.0 0.0 0.00 0.02 0.01 67 1027.3
20260510060004 64 0 0.0 0.0 0.00 0.02 0.01 67 1027.2
20260510055504 64 0 0.0 5.0 0.00 0.02 0.01 66 1027.3
20260510055004 64 225 1.0 5.0 0.00 0.02 0.01 66 1027.3
20260510054504 64 217 2.0 5.0 0.00 0.02 0.01 66 1027.4
20260510054025 64 244 3.0 8.0 0.00 0.02 0.01 66 1027.3
20260510053504 64 275 2.0 8.0 0.00 0.02 0.01 66 1027.3
20260510053004 65 298 1.0 5.0 0.00 0.02 0.01 65 1027.3
20260510052524 65 319 0.0 5.0 0.00 0.02 0.01 65 1027.3
20260510052004 65 0 0.0 0.0 0.00 0.02 0.01 65 1027.2
20260510051504 65 201 1.0 5.0 0.00 0.02 0.01 65 1027.3
20260510051004 65 112 1.0 5.0 0.00 0.02 0.01 66 1027.3
20260510050504 65 84 1.0 5.0 0.00 0.02 0.01 67 1027.3
20260510050004 65 111 1.0 5.0 0.00 0.02 0.01 66 1027.3
20260510045504 65 138 1.0 5.0 0.00 0.02 0.01 65 1027.3
20260510045004 66 138 0.0 5.0 0.00 0.02 0.01 65 1027.3
20260510044503 66 137 0.0 5.0 0.00 0.02 0.01 64 1027.3
20260510044004 65 138 0.0 3.0 0.00 0.02 0.01 65 1027.3
20260510043503 65 138 0.0 5.0 0.00 0.02 0.01 66 1027.3
20260510043025 64 138 1.0 5.0 0.00 0.02 0.01 65 1027.3
20260510042504 64 246 1.0 6.0 0.00 0.02 0.01 66 1027.3
20260510042004 64 248 1.0 6.0 0.00 0.02 0.01 66 1027.4
20260510041504 65 221 1.0 5.0 0.00 0.02 0.01 66 1027.4
20260510041004 65 222 1.0 5.0 0.00 0.02 0.01 66 1027.4
20260510040503 65 251 1.0 5.0 0.00 0.02 0.01 67 1027.4
20260510040004 65 125 1.0 3.0 0.00 0.02 0.01 66 1027.5
20260510035504 64 124 1.0 5.0 0.00 0.02 0.01 66 1027.5
20260510035004 64 124 0.0 5.0 0.00 0.02 0.01 67 1027.6
20260510034503 64 0 1.0 0.0 0.00 0.02 0.01 66 1027.7
20260510034003 64 220 2.0 3.0 0.00 0.02 0.01 66 1027.7
20260510033524 64 216 3.0 6.0 0.00 0.02 0.01 66 1027.8
20260510033003 64 227 2.0 6.0 0.00 0.02 0.01 65 1027.8
20260510032504 64 255 1.0 6.0 0.00 0.02 0.01 66 1027.9
20260510032004 64 289 1.0 4.0 0.00 0.02 0.01 65 1027.9
20260510031504 64 285 1.0 4.0 0.00 0.02 0.01 65 1027.8
20260510031004 64 310 1.0 6.0 0.00 0.02 0.01 66 1027.9
20260510030504 64 309 1.0 6.0 0.00 0.02 0.01 65 1028.0
20260510030004 64 333 2.0 5.0 0.00 0.02 0.01 65 1028.1
20260510025503 64 340 2.0 5.0 0.00 0.02 0.01 66 1028.1
20260510025004 65 26 1.0 6.0 0.00 0.02 0.01 64 1028.2
20260510024525 65 39 1.0 6.0 0.00 0.02 0.01 66 1028.2
20260510024024 64 312 1.0 5.0 0.00 0.02 0.01 66 1028.3
20260510023525 64 292 0.0 5.0 0.00 0.02 0.01 66 1028.4
20260510023004 64 334 0.0 4.0 0.00 0.02 0.01 65 1028.5
20260510022504 64 0 0.0 0.0 0.00 0.02 0.01 67 1028.6
20260510022004 64 0 0.0 0.0 0.00 0.02 0.01 66 1028.7
20260510021503 64 0 0.0 0.0 0.00 0.02 0.01 67 1028.7
20260510021024 63 219 0.0 3.0 0.00 0.02 0.01 67 1028.8
20260510020504 63 207 0.0 3.0 0.00 0.02 0.01 67 1028.8
20260510020004 63 179 0.0 4.0 0.00 0.02 0.01 67 1028.9
20260510015504 64 90 0.0 5.0 0.00 0.02 0.01 66 1028.9
20260510015025 63 117 0.0 5.0 0.00 0.02 0.01 67 1029.0
20260510014503 63 143 0.0 3.0 0.00 0.02 0.01 67 1029.1
20260510014025 63 0 0.0 0.0 0.00 0.02 0.01 67 1029.1
20260510013504 63 143 0.0 1.0 0.00 0.02 0.01 67 1029.1
20260510013025 63 157 0.0 3.0 0.00 0.02 0.01 67 1029.1
20260510012504 63 179 0.0 3.0 0.00 0.02 0.01 67 1029.1
20260510012004 63 204 0.0 3.0 0.00 0.02 0.01 69 1029.1
20260510011504 62 204 1.0 4.0 0.00 0.02 0.01 70 1029.1
20260510011003 62 204 0.0 5.0 0.00 0.02 0.01 70 1029.2
20260510010504 62 204 5.0 5.0 0.00 0.02 0.01 70 1029.1
20260510010004 62 204 0.0 3.0 0.00 0.02 0.01 72 1029.2
20260510005504 62 204 0.0 3.0 0.00 0.02 0.01 72 1029.2
20260510005004 61 200 0.0 5.0 0.00 0.02 0.01 72 1029.2
20260510004503 61 194 0.0 5.0 0.00 0.02 0.01 72 1029.2
20260510004003 61 127 0.0 3.0 0.00 0.02 0.01 73 1029.2
20260510003503 61 127 0.0 3.0 0.00 0.02 0.01 73 1029.2
20260510003004 61 127 0.0 1.0 0.00 0.02 0.01 74 1029.2
20260510002525 60 127 1.0 3.0 0.00 0.02 0.01 75 1029.2
20260510002004 60 119 1.0 3.0 0.00 0.02 0.01 75 1029.3
20260510001504 60 110 0.0 4.0 0.00 0.02 0.01 75 1029.2
20260510001003 60 112 1.0 5.0 0.00 0.02 0.01 76 1029.2
20260510000503 60 119 1.0 5.0 0.00 0.02 0.01 77 1029.3
20260510000024 60 116 1.0 3.0 0.00 0.02 0.01 77 1029.3
20260509235504 60 109 1.0 5.0 0.00 0.02 0.01 78 1029.3
20260509235003 60 104 3.0 5.0 0.00 0.02 0.01 78 1029.3
20260509234503 59 96 5.0 9.0 0.00 0.02 0.01 79 1029.3
20260509234003 59 95 6.0 9.0 0.00 0.02 0.01 79 1029.3
20260509233503 59 101 7.0 9.0 0.00 0.02 0.01 79 1029.3
20260509233004 59 101 7.0 13.0 0.00 0.02 0.01 79 1029.2
20260509232503 58 95 6.0 13.0 0.00 0.02 0.01 81 1029.2
20260509232004 58 90 4.0 10.0 0.00 0.02 0.01 84 1029.2
20260509231503 58 93 3.0 10.0 0.00 0.02 0.01 86 1029.1
20260509231003 57 109 3.0 8.0 0.00 0.02 0.01 88 1029.1
20260509230503 57 115 4.0 8.0 0.00 0.02 0.01 90 1029.1
20260509230024 56 98 3.0 9.0 0.00 0.02 0.01 90 1029.1
20260509225503 56 88 1.0 9.0 0.00 0.02 0.01 91 1029.1
20260509225024 56 88 0.0 6.0 0.00 0.02 0.01 91 1029.1
20260509224504 55 110 0.0 3.0 0.00 0.02 0.01 91 1029.1
20260509224004 55 109 0.0 3.0 0.00 0.02 0.01 91 1029.0
20260509223503 55 107 0.0 3.0 0.00 0.02 0.01 91 1029.0
20260509223024 55 107 0.0 3.0 0.00 0.02 0.01 91 1028.9
20260509222504 54 107 0.0 1.0 0.00 0.02 0.01 91 1029.0
20260509222004 54 0 0.0 0.0 0.00 0.02 0.01 91 1028.9
20260509221503 54 16 0.0 3.0 0.00 0.02 0.01 91 1028.8
20260509221024 54 15 0.0 3.0 0.00 0.02 0.01 91 1028.7
20260509220504 54 317 0.0 1.0 0.00 0.02 0.01 91 1028.7
20260509220003 53 122 1.0 1.0 0.00 0.02 0.01 91 1028.7
20260509215504 53 122 1.0 5.0 0.00 0.02 0.01 91 1028.6
20260509215003 53 109 1.0 5.0 0.00 0.02 0.01 91 1028.4
20260509214504 53 56 0.0 4.0 0.00 0.02 0.01 91 1028.4
20260509214004 53 36 0.0 3.0 0.00 0.02 0.01 91 1028.3
20260509213504 53 0 0.0 0.0 0.00 0.02 0.01 91 1028.3
20260509213004 53 0 0.0 0.0 0.00 0.02 0.01 91 1028.2
20260509212504 53 0 0.0 0.0 0.00 0.02 0.01 91 1028.2
20260509212004 53 36 0.0 1.0 0.00 0.02 0.01 91 1028.2
20260509211504 52 36 0.0 1.0 0.00 0.02 0.01 91 1028.2
20260509211004 52 36 0.0 3.0 0.00 0.02 0.01 91 1028.2
20260509210504 52 36 0.0 3.0 0.00 0.02 0.01 91 1028.1
20260509210004 52 36 1.0 5.0 0.00 0.02 0.01 91 1028.0
20260509205504 53 36 3.0 5.0 0.00 0.02 0.01 91 1028.0
20260509205004 53 18 4.0 8.0 0.00 0.02 0.01 91 1028.0
20260509204504 53 13 3.0 8.0 0.00 0.02 0.01 91 1027.9
20260509204004 53 17 3.0 6.0 0.00 0.02 0.01 91 1027.9
20260509203504 53 21 3.0 6.0 0.00 0.02 0.01 91 1027.9
20260509203004 52 22 3.0 6.0 0.01 0.02 0.01 91 1027.9
20260509202525 52 12 3.0 5.0 0.01 0.02 0.01 91 1027.8
20260509202004 52 15 3.0 8.0 0.01 0.02 0.01 91 1027.7
20260509201525 52 24 3.0 8.0 0.01 0.02 0.01 91 1027.7
20260509201004 52 31 1.0 8.0 0.01 0.02 0.01 91 1027.7
20260509200504 51 62 0.0 6.0 0.01 0.02 0.01 91 1027.6
20260509200004 51 84 0.0 3.0 0.01 0.02 0.01 91 1027.5
20260509195504 52 75 0.0 1.0 0.01 0.02 0.01 91 1027.5
20260509195004 52 75 1.0 3.0 0.01 0.02 0.01 91 1027.4